Location: De Greiden
(52.9496°N, 5.9137°E)
Time: 00:44:00
(UTC+00:00)

Ariane Rocket - Pass Details

Date: 24 January 2021
Orbit: 760 x 769 km, 98.7° (Epoch: 26 February)

Event Time Altitude Azimuth Distance (km) Brightness Sun altitude
Exits shadow 19:00:49 40° 11° (N) 1,126 3.7 -25.9°
Drops below altitude 10° 19:04:13 10° 350° (N) 2,322 5.6 -26.4°
Sets 19:06:34 0° 347° (NNW) 3,254 6.5 -26.7°
